When you browse on this site, cookies collect data to enhance your experience and personalize the content and advertising you see.
Visit our Privacy Policy to learn more. By continuing to use the site, you agree to this use of cookies and data.
  • In Hungary
  • List of Countries
  • For 7 days
  • Water Temperature
  • Weather Map
  • News
  • Weather Widgets
  • user-avatar
    Login

    Hourly Weather Koshkino

    Today, 23 February, Sunday

    Time Temperature Precipitation Wind Pressure Humidity
    00:00 0°C° 0.7 mm 8 mps 735 mmHg 86%
    01:00 0°C° 0.7 mm 7 mps 734 mmHg 81%
    02:00 +2°C° 0.7 mm 6 mps 734 mmHg 76%
    03:00 +1°C° 0 mm 6 mps 734 mmHg 77%
    04:00 +1°C° 0 mm 6 mps 734 mmHg 78%
    05:00 +1°C° 0 mm 6 mps 734 mmHg 79%
    06:00 -1°C° 0 mm 6 mps 734 mmHg 79%
    07:00 -1°C° 0 mm 6 mps 734 mmHg 79%
    08:00 -1°C° 0 mm 6 mps 735 mmHg 80%
    09:00 +1°C° 0 mm 6 mps 735 mmHg 77%
    10:00 +1°C° 0 mm 6 mps 734 mmHg 74%
    11:00 +1°C° 0 mm 6 mps 734 mmHg 71%
    12:00 0°C° 0 mm 7 mps 734 mmHg 73%
    13:00 0°C° 0 mm 7 mps 734 mmHg 75%
    14:00 +2°C° 0 mm 7 mps 734 mmHg 77%
    15:00 0°C° 0.1 mm 7 mps 734 mmHg 78%
    16:00 +1°C° 0.1 mm 6 mps 733 mmHg 80%
    17:00 +1°C° 0.1 mm 6 mps 733 mmHg 81%
    18:00 +1°C° 0 mm 6 mps 733 mmHg 81%
    19:00 +1°C° 0 mm 6 mps 733 mmHg 82%
    20:00 +1°C° 0 mm 5 mps 733 mmHg 82%
    21:00 +1°C° 0.1 mm 5 mps 733 mmHg 85%
    22:00 0°C° 0.1 mm 5 mps 733 mmHg 88%
    23:00 0°C° 0.1 mm 5 mps 732 mmHg 90%

    Tomorrow, 24 February, Monday

    Time Temperature Precipitation Wind Pressure Humidity
    00:00 0°C° 0.1 mm 4 mps 733 mmHg 89%
    01:00 0°C° 0.1 mm 4 mps 733 mmHg 87%
    02:00 0°C° 0.1 mm 4 mps 733 mmHg 86%
    03:00 0°C° 0 mm 4 mps 733 mmHg 87%
    04:00 -1°C° 0 mm 4 mps 733 mmHg 88%
    05:00 -1°C° 0 mm 4 mps 733 mmHg 89%
    06:00 -1°C° 0 mm 4 mps 734 mmHg 88%
    07:00 -2°C° 0 mm 4 mps 734 mmHg 87%
    08:00 -2°C° 0 mm 4 mps 735 mmHg 85%
    09:00 -1°C° 0 mm 4 mps 736 mmHg 79%
    10:00 0°C° 0 mm 5 mps 736 mmHg 73%
    11:00 0°C° 0 mm 5 mps 737 mmHg 67%
    12:00 0°C° 0 mm 5 mps 738 mmHg 63%
    13:00 +1°C° 0 mm 6 mps 738 mmHg 59%
    14:00 +1°C° 0 mm 6 mps 739 mmHg 55%
    15:00 0°C° 0 mm 5 mps 740 mmHg 57%
    16:00 0°C° 0 mm 4 mps 740 mmHg 60%
    17:00 -1°C° 0 mm 4 mps 741 mmHg 62%
    18:00 -1°C° 0 mm 4 mps 741 mmHg 66%
    19:00 -2°C° 0 mm 4 mps 742 mmHg 69%
    20:00 -2°C° 0 mm 4 mps 743 mmHg 72%
    21:00 -2°C° 0 mm 3 mps 743 mmHg 74%
    22:00 -2°C° 0 mm 3 mps 743 mmHg 76%
    23:00 -2°C° 0 mm 3 mps 743 mmHg 78%

    Day after tomorrow, 25 February, Tuesday

    Time Temperature Precipitation Wind Pressure Humidity
    00:00 -2°C° 0 mm 3 mps 743 mmHg 78%
    01:00 -2°C° 0 mm 3 mps 743 mmHg 78%
    02:00 -2°C° 0 mm 3 mps 744 mmHg 77%
    03:00 -2°C° 0 mm 3 mps 743 mmHg 79%
    04:00 -2°C° 0 mm 2 mps 743 mmHg 80%
    05:00 -2°C° 0 mm 2 mps 743 mmHg 81%
    06:00 -2°C° 0 mm 2 mps 742 mmHg 80%
    07:00 -2°C° 0 mm 2 mps 742 mmHg 79%
    08:00 -2°C° 0 mm 2 mps 742 mmHg 78%
    09:00 -1°C° 0 mm 2 mps 742 mmHg 71%
    10:00 0°C° 0 mm 3 mps 741 mmHg 63%
    11:00 +1°C° 0 mm 3 mps 741 mmHg 56%
    12:00 +1°C° 0 mm 3 mps 740 mmHg 54%
    13:00 +1°C° 0 mm 3 mps 740 mmHg 53%
    14:00 +2°C° 0 mm 3 mps 739 mmHg 51%
    15:00 +1°C° 0 mm 3 mps 739 mmHg 59%
    16:00 +1°C° 0 mm 3 mps 738 mmHg 67%
    17:00 0°C° 0 mm 3 mps 737 mmHg 75%
    18:00 0°C° 0.2 mm 3 mps 737 mmHg 82%
    19:00 -1°C° 0.2 mm 4 mps 736 mmHg 89%
    20:00 -1°C° 0.2 mm 4 mps 735 mmHg 96%
    21:00 -1°C° 0.4 mm 4 mps 735 mmHg 96%
    22:00 -1°C° 0.4 mm 4 mps 734 mmHg 96%
    23:00 0°C° 0.4 mm 4 mps 734 mmHg 97%

    26 February, Wednesday

    Time Temperature Precipitation Wind Pressure Humidity
    00:00 +1°C° 0.1 mm 3 mps 733 mmHg 95%
    01:00 0°C° 0.1 mm 3 mps 733 mmHg 93%
    02:00 0°C° 0.1 mm 3 mps 733 mmHg 92%
    03:00 0°C° 0 mm 3 mps 733 mmHg 91%
    04:00 -1°C° 0 mm 3 mps 733 mmHg 91%
    05:00 -1°C° 0 mm 3 mps 733 mmHg 90%
    06:00 -1°C° 0 mm 3 mps 733 mmHg 90%
    07:00 -1°C° 0 mm 3 mps 733 mmHg 90%
    08:00 -2°C° 0 mm 4 mps 733 mmHg 90%
    09:00 -1°C° 0 mm 4 mps 733 mmHg 88%
    10:00 -1°C° 0 mm 4 mps 734 mmHg 86%
    11:00 0°C° 0 mm 4 mps 734 mmHg 83%
    12:00 0°C° 0 mm 4 mps 734 mmHg 80%
    13:00 0°C° 0 mm 4 mps 735 mmHg 77%
    14:00 +1°C° 0 mm 4 mps 735 mmHg 73%
    15:00 0°C° 0 mm 4 mps 735 mmHg 75%
    16:00 +1°C° 0 mm 3 mps 735 mmHg 76%
    17:00 +2°C° 0 mm 2 mps 736 mmHg 78%
    18:00 +1°C° 0 mm 2 mps 736 mmHg 79%
    19:00 +1°C° 0 mm 2 mps 737 mmHg 79%
    20:00 +1°C° 0 mm 2 mps 737 mmHg 80%
    21:00 +1°C° 0 mm 2 mps 737 mmHg 82%
    22:00 +1°C° 0 mm 2 mps 738 mmHg 84%
    23:00 -1°C° 0 mm 2 mps 738 mmHg 86%

    27 February, Thursday

    Time Temperature Precipitation Wind Pressure Humidity
    00:00 -1°C° 0 mm 2 mps 738 mmHg 88%
    01:00 -1°C° 0 mm 2 mps 738 mmHg 89%
    02:00 -2°C° 0 mm 2 mps 738 mmHg 91%
    03:00 -2°C° 0 mm 2 mps 738 mmHg 91%
    04:00 -2°C° 0 mm 2 mps 738 mmHg 91%
    05:00 -2°C° 0 mm 2 mps 738 mmHg 91%
    06:00 -2°C° 0 mm 2 mps 738 mmHg 89%
    07:00 -1°C° 0 mm 2 mps 739 mmHg 88%
    08:00 -1°C° 0 mm 2 mps 739 mmHg 86%
    09:00 +1°C° 0 mm 2 mps 739 mmHg 83%
    10:00 +2°C° 0 mm 2 mps 739 mmHg 80%
    11:00 +3°C° 0 mm 2 mps 739 mmHg 77%
    12:00 +3°C° 0 mm 2 mps 739 mmHg 80%
    13:00 +3°C° 0 mm 2 mps 739 mmHg 82%
    14:00 +3°C° 0 mm 2 mps 739 mmHg 85%
    15:00 +4°C° 0.1 mm 1 mps 740 mmHg 89%
    16:00 +3°C° 0.1 mm 1 mps 740 mmHg 92%
    17:00 +2°C° 0.1 mm 1 mps 740 mmHg 96%
    18:00 +2°C° 0.4 mm 1 mps 740 mmHg 96%
    19:00 +1°C° 0.4 mm 2 mps 741 mmHg 96%
    20:00 -1°C° 0.4 mm 2 mps 741 mmHg 96%
    21:00 -1°C° 0.1 mm 2 mps 741 mmHg 95%
    22:00 -1°C° 0.1 mm 2 mps 741 mmHg 94%
    23:00 -1°C° 0.1 mm 2 mps 742 mmHg 92%

    28 February, Friday

    Time Temperature Precipitation Wind Pressure Humidity
    00:00 -1°C° 0.1 mm 2 mps 742 mmHg 93%
    01:00 -1°C° 0.1 mm 2 mps 742 mmHg 94%
    02:00 -2°C° 0.1 mm 2 mps 742 mmHg 95%
    03:00 -2°C° 0.1 mm 3 mps 742 mmHg 94%
    04:00 -2°C° 0.1 mm 3 mps 743 mmHg 93%
    05:00 -4°C° 0.1 mm 3 mps 743 mmHg 92%
    06:00 -4°C° 0 mm 3 mps 743 mmHg 90%
    07:00 -4°C° 0 mm 3 mps 744 mmHg 87%
    08:00 -4°C° 0 mm 3 mps 744 mmHg 85%
    09:00 -4°C° 0 mm 3 mps 744 mmHg 78%
    10:00 -2°C° 0 mm 3 mps 744 mmHg 71%
    11:00 -2°C° 0 mm 3 mps 745 mmHg 64%
    12:00 -1°C° 0 mm 3 mps 744 mmHg 62%
    13:00 0°C° 0 mm 3 mps 744 mmHg 60%
    14:00 0°C° 0 mm 3 mps 744 mmHg 58%
    15:00 0°C° 0 mm 3 mps 744 mmHg 60%
    16:00 -1°C° 0 mm 3 mps 743 mmHg 62%
    17:00 -1°C° 0 mm 3 mps 743 mmHg 64%
    18:00 -2°C° 0 mm 4 mps 742 mmHg 65%
    19:00 -2°C° 0 mm 4 mps 742 mmHg 66%
    20:00 -2°C° 0 mm 5 mps 741 mmHg 68%
    21:00 -2°C° 0.1 mm 5 mps 741 mmHg 74%
    22:00 -3°C° 0.1 mm 6 mps 740 mmHg 81%
    23:00 -3°C° 0.1 mm 6 mps 739 mmHg 87%
    Show more